Zurück zum Katalog

CZ-4C DEB

AktivLEO
NORAD 43421·DEBRIS·🇨🇳 China

Gestartet Dec 10, 2014 von Jiuquan Satellite Launch Center

Loading…

Nächste Überflüge (nächste 24 Stunden)

TLE

VeraltetSource: Space-Track

Epoche: Aug 29, 2026, 23:26 UTC

1 43421U 14080K   26241.97647771  .00000079  00000-0  18536-3 0  9992
2 43421  63.3849 140.1666 0384120  11.5494 349.4040 13.44801834499108

Verfolge CZ-4C DEB in Echtzeit mit AllMySat

Download on the App Store